TimeCST,TemperatureF,Dew PointF,Humidity,Sea Level PressureIn,VisibilityMPH,Wind Direction,Wind SpeedMPH,Gust SpeedMPH,PrecipitationIn,Events,Conditions,WindDirDegrees,DateUTC
12:53 AM,64.0,48.0,56,30.24,10.0,NE,9.2,-,N/A,,Overcast,40,2012-11-16 06:53:00
1:53 AM,64.0,48.9,58,30.23,10.0,NE,8.1,-,N/A,,Overcast,50,2012-11-16 07:53:00
2:09 AM,64.4,48.2,56,30.23,10.0,ENE,9.2,-,N/A,,Overcast,60,2012-11-16 08:09:00
2:53 AM,64.0,48.9,58,30.23,10.0,NE,9.2,-,N/A,,Overcast,50,2012-11-16 08:53:00
3:53 AM,63.0,48.9,60,30.23,10.0,NE,8.1,-,N/A,,Overcast,40,2012-11-16 09:53:00
4:53 AM,63.0,46.0,54,30.22,10.0,NE,9.2,-,N/A,,Overcast,40,2012-11-16 10:53:00
5:53 AM,63.0,42.1,46,30.23,10.0,ENE,10.4,-,N/A,,Overcast,60,2012-11-16 11:53:00
6:53 AM,62.1,43.0,50,30.25,10.0,ENE,8.1,-,N/A,,Overcast,60,2012-11-16 12:53:00
7:53 AM,62.1,41.0,46,30.27,10.0,NE,12.7,-,N/A,,Overcast,50,2012-11-16 13:53:00
8:53 AM,63.0,42.1,46,30.30,10.0,ENE,15.0,-,N/A,,Overcast,60,2012-11-16 14:53:00
9:53 AM,64.0,43.0,46,30.32,10.0,NE,9.2,-,N/A,,Overcast,50,2012-11-16 15:53:00
10:53 AM,66.0,39.9,38,30.32,10.0,ENE,13.8,-,N/A,,Overcast,60,2012-11-16 16:53:00
11:53 AM,66.0,37.9,36,30.31,10.0,NE,11.5,-,N/A,,Overcast,50,2012-11-16 17:53:00
12:53 PM,68.0,37.9,33,30.28,10.0,NE,15.0,-,N/A,,Overcast,40,2012-11-16 18:53:00
1:53 PM,71.1,37.9,30,30.26,10.0,NE,11.5,-,N/A,,Mostly Cloudy,50,2012-11-16 19:53:00
2:53 PM,71.1,37.0,29,30.24,10.0,NE,11.5,-,N/A,,Overcast,50,2012-11-16 20:53:00
3:53 PM,70.0,37.0,30,30.25,10.0,ENE,8.1,-,N/A,,Overcast,60,2012-11-16 21:53:00
4:53 PM,69.1,36.0,30,30.26,10.0,NE,6.9,-,N/A,,Overcast,50,2012-11-16 22:53:00
5:53 PM,66.0,37.0,34,30.26,10.0,Calm,Calm,-,N/A,,Scattered Clouds,0,2012-11-16 23:53:00
6:53 PM,61.0,37.9,42,30.28,10.0,SE,4.6,-,N/A,,Overcast,130,2012-11-17 00:53:00
7:53 PM,61.0,39.9,46,30.29,10.0,ESE,3.5,-,N/A,,Overcast,110,2012-11-17 01:53:00
8:53 PM,59.0,41.0,51,30.31,10.0,Calm,Calm,-,N/A,,Mostly Cloudy,0,2012-11-17 02:53:00
9:53 PM,55.9,41.0,57,30.32,10.0,Calm,Calm,-,N/A,,Clear,0,2012-11-17 03:53:00
10:53 PM,54.0,42.1,64,30.31,10.0,Calm,Calm,-,N/A,,Clear,0,2012-11-17 04:53:00
11:53 PM,54.0,42.1,64,30.30,10.0,North,4.6,-,N/A,,Clear,350,2012-11-17 05:53:00